Location: Hobi?a Gr?di?te
(45.4833°N, 22.7833°E)
Time: 04:44:18
(UTC+00:00)

COSMO-SKYMED 1 - Pass Details

Date: 28 January 2023
Orbit: 621 x 623 km, 97.9° (Epoch: 29 March)

Event Time Altitude Azimuth Distance (km) Brightness Sun altitude
Rises 16:50:58 0° 11° (N) 2,919 5.8 -14.4°
Reaches altitude 10° 16:53:10 10° 9° (N) 2,008 5.0 -14.8°
Maximum altitude 16:57:31 71° 286° (WNW) 665 2.8 -15.5°
Drops below altitude 10° 17:01:50 10° 203° (SSW) 1,991 5.6 -16.3°
Sets 17:04:01 0° 201° (SSW) 2,892 6.4 -16.6°
